Location: Songkhla
(7.2000°N, 100.6000°E)
Time: 03:43:02
(UTC+07:00)

BRICSAT 2 - Pass Details

Date: 21 June 2021
Orbit: 295 x 638 km, 28.5° (Epoch: 28 July)

Event Time Altitude Azimuth Distance (km) Brightness Sun altitude
Rises 19:51:32 0° 314° (NW) 2,527 ? -17.8°
Reaches altitude 10° 19:53:48 10° 325° (NW) 1,715 ? -18.3°
Maximum altitude 19:57:22 31° 28° (NNE) 976 ? -19.1°
Enters shadow 19:58:30 27° 58° (ENE) 1,095 ? -19.3°
Drops below altitude 10° 20:01:19 10° 91° (E) 1,907 - -20.0°
Sets 20:03:58 0° 101° (E) 2,863 - -20.5°
